DELTA 1 DEB, 7129

Orbit data source: Space-Track

DELTA 1 DEB, 7129 is space debris in SSO originally from a launch on Tue, 06 Nov 1973 UTC launched from the Air Force Western Test Range (AFWTR). Debris objects in space refer to the collection of defunct objects orbiting the Earth. Examples of debris include non-operational satellites, rocket bodies, and fragments generated from explosions, collisions, or faulty payload assembly.

Loading next visibility...
Identifier
7129, 1973-086CT
Orbit
SSO
Country
Flag of USUS
Related business
Manufacturer
Unknown
Mission
Spacecraft
Bus & Motor
Unknown
Mass
Unknown
Launch date (UTC)
1973-11-06 (53 years ago)
Launch vehicle
Unknown
Launch site
Air Force Western Test Range (AFWTR)
Object type
Payload
Rocket body
Debris
Shape & HBR
Unknown shape, 0.2 m
Radar Cross Section
Medium (>0.1 m² and <1 m²)

Expand to show TLE details & history
Last TLE update: 21 hours ago

TLE from 21 hours ago
0 DELTA 1 DEB
1 07129U 73086CT  26206.55865755 -.00000088  00000-0 -49329-3 0  9993
2 07129 102.0193  60.2342 0247344 272.2693 111.4748 12.04459691311977
Epoch: 2026-07-25T13:24Z
TLE epoch observation values (Epoch: 2026-07-25T13:24:28.012Z)
Latitude
25.76115°
Longitude
-90.02093°
Altitude
1,740.728 km
Speed
6.976 km/s
True Right ascension
03h 37m 27s
True Declination
25° 38' 35"
Sunlit
Object was in daylight at epoch
Visualization orbit readout
Latitude
Unknown
Longitude
Unknown
Altitude
Unknown
Speed
Unknown
Apparent Right ascension
Unknown
Apparent Declination
Unknown
Sunlit
N/A
Visualization observer readout
Local Sidereal Time
23:15:55
Azimuth
Unknown
Elevation
Unknown
Doppler factor
Unknown
Orbital elements
Apogee altitude
1,857.359 km
Perigee altitude
1,459.792 km
Semi-major axis
8,036.712 km
Eccentricity
0.02473
Inclination
102.0193°
RAAN
60.2342°
Arg. of periapsis
272.2693°
True anomaly
114.08196°
Mean anomaly
111.4748°
Eccentric anomaly
112.78142°
Mean motion
3.01249 °/min
Orbital period
119.5 mins
BSTAR
-0.00049329
Loading maneuver chart data...
Computing Atmospheric mass density...
Loading historical data...
Loading historical data...
Loading historical data...
Loading historical data...
Loading historical data...
Loading historical data...
Loading historical data...

Documentation

Showing up to 5 results
|